STARLINK-31785, 60131

Orbit data source: Space-Track

STARLINK-31785, 60131 is a payload satellite owned by SpaceX/Seattle (US) in LEO that was launched on Mon, 24 Jun 2024 UTC via an FALCON 9 launch vehicle from the Air Force Western Test Range (AFWTR). Payload-class satellites include a variety of spacecraft equipped with specific instruments for various scientific and technological missions. These include communications satellites like Starlink; space stations such as the ISS; scientific satellites like the Hubble; Earth observation satellites from companies like Planet Labs, Umbra, and HawkEye 360; GPS; miniature CubeSats for education and research; and military/defense satellites.

Loading next visibility...
Identifier
60131, 2024-118U
Orbit
LEO
Country
Flag of USUS
Related business
Manufacturer
SpaceX/Seattle
Mission
Operational Commercial Communications
Bus & Motor
STARLINK V2M, Unknown motor
Mass
730 kg wet, ~700 kg dry
Launch date (UTC)
2024-06-24 (1 year ago)
Launch vehicle
FALCON 9
Launch site
Air Force Western Test Range (AFWTR)
Object type
Payload
Rocket body
Debris
Shape & HBR
Box + 2 Pan, 17.7 m
Radar Cross Section
33.884 m², Large (>1 m²)

Expand to show TLE details & history
Last TLE update: 16 hours ago

TLE from 16 hours ago
0 STARLINK-31785
1 60131U 24118U   25293.36867417 -.00000902  00000-0 -18349-4 0  9992
2 60131  53.1613 318.4221 0001134  87.6165 272.4966 15.30188951 74216
Epoch: 2025-10-20T08:50Z
TLE epoch observation values (Epoch: 2025-10-20T08:50:53.448Z)
Latitude
0.00002°
Longitude
156.62743°
Altitude
476.114 km
Speed
7.629 km/s
True Right ascension
21h 13m 41s
True Declination
0° 00' 00"
Sunlit
Object was in full shadow at epoch
Visualization orbit readout
Latitude
Unknown
Longitude
Unknown
Altitude
Unknown
Speed
Unknown
Apparent Right ascension
Unknown
Apparent Declination
Unknown
Sunlit
N/A
Visualization observer readout
Local Sidereal Time
19:54:28
Azimuth
Unknown
Elevation
Unknown
Doppler factor
Unknown
Orbital elements
Apogee altitude
476.281 km
Perigee altitude
474.727 km
Semi-major axis
6,853.641 km
Eccentricity
0.00011
Inclination
53.1613°
RAAN
318.4221°
Arg. of periapsis
87.6165°
True anomaly
272.48362°
Mean anomaly
272.4966°
Eccentric anomaly
272.49011°
Mean motion
3.82526 °/min
Orbital period
94.11 mins
BSTAR
-0.000018349
Loading maneuver chart data...
Computing Atmospheric mass density...
Loading historical data...
Loading historical data...
Loading historical data...
Loading historical data...
Loading historical data...
Loading historical data...
Loading historical data...

Documentation

Showing up to 5 results
|